Home > Weather > Bradenton > Past weeks

Flag for U.S.A. Weather for the Past 2 Weeks in Bradenton, Florida, U.S.A.

Now
60 °F

Sunny.


Feels Like: 60 °F
Forecast: 47 / 68 °F
Wind: 7 mph from West

Location: Sarasota-Bradenton International Airport

Current Time: Feb 11, 2016 at 7:32:54 PM

Latest Report: Feb 11, 2016 at 5:53 PM


Visibility: 10 mi

Pressure: 30.26 "Hg

Humidity: 67%

Dew point: 49 °F

Location of BradentonLocation

Historic Weather in Bradenton — Graph

°F

Bradenton Temperature Yesterday

Maximum temperature yesterday: 60 °F (at 1:53 PM)
Minimum temperature yesterday: 43 °F (at 11:53 PM)
Average temperature yesterday: 53 °F

High & Low Weather Summary for the Past Weeks

 TemperatureHumidityPressure
High84 °F (Feb 3, 12:53 PM)100% (Jan 27, 5:53 PM)30.33 "Hg (Jan 27, 5:53 PM)
Low39 °F (Feb 8, 3:53 AM)27% (Feb 5, 1:53 PM)29.73 "Hg (Jan 28, 3:01 PM)
Average60 °F75%30.06 "Hg
* Reported Jan 27 5:04 PM — Feb 11 5:53 PM, Bradenton, Weather by CustomWeather, © 2016

Note: Actual official high and low records may vary slightly from our data, if they occured in-between our weather recording intervals... More about our weather records

Advertising

Bradenton Weather History for the Previous 24 Hours

 ConditionsComfort  
Time TempWeatherWind HumidityBarometerVisibility
5:53 PM
Thu, Feb 11
60 °FSunny.7 mph67%30.26 "Hg10 mi
3:53 PM63 °FSunny.12 mph56%30.25 "Hg10 mi
2:53 PM63 °FSunny.9 mph54%30.24 "Hg10 mi
1:53 PM64 °FSunny.10 mph52%30.26 "Hg10 mi
12:53 PM63 °FSunny.8 mph48%30.29 "Hg10 mi
11:53 AM62 °FSunny.No wind50%30.32 "Hg10 mi
10:53 AM60 °FSunny.5 mph53%30.33 "Hg10 mi
9:53 AM57 °FSunny.9 mph60%30.33 "Hg10 mi
8:53 AM52 °FSunny.6 mph83%30.32 "Hg10 mi
7:53 AM43 °FSunny.3 mph97%30.30 "Hg10 mi
6:53 AM40 °FClear.No wind93%30.30 "Hg10 mi
5:53 AM39 °FClear.No wind93%30.27 "Hg10 mi
4:53 AM42 °FClear.No wind92%30.25 "Hg10 mi
3:53 AM39 °FClear.5 mph96%30.24 "Hg10 mi
2:53 AM41 °FClear.No wind93%30.24 "Hg10 mi
1:53 AM43 °FClear.3 mph89%30.25 "Hg10 mi
12:53 AM43 °FClear.3 mph86%30.25 "Hg10 mi
11:53 PM
Wed, Feb 10
43 °FClear.3 mph86%30.27 "Hg10 mi
10:53 PM48 °FClear.6 mph77%30.28 "Hg10 mi
9:53 PM48 °FClear.3 mph74%30.27 "Hg10 mi
8:53 PM49 °FClear.5 mph71%30.27 "Hg10 mi
7:53 PM50 °FClear.8 mph66%30.27 "Hg10 mi
Weather by CustomWeather, © 2016

See weather overviewHow to use our weather pages